Regional Weather Roundup
Issued by NWS

Home | Current Version | Previous Version | Graphics & Text | Print | Product List | Glossary On
Versions: 1 2 3 4 5 6 7 8 9 10 11 12 13 14 15 16 17 18 19 20 21 22 23 24 25 26 27 28 29 30 31 32 33 34 35 36 37 38 39 40 41 42 43 44 45 46 47 48 49 50
000
ASUS43 KLOT 201203
RWRIL

ILLINOIS REGIONAL WEATHER ROUNDUP
NATIONAL WEATHER SERVICE CHICAGO/ROMEOVILLE IL
600 AM CST FRI JAN 20 2017

NOTE: "FAIR" INDICATES FEW OR NO CLOUDS BELOW 12,000 FEET WITH NO
SIGNIFICANT WEATHER AND/OR OBSTRUCTIONS TO VISIBILITY.

* THESE STATIONS ARE NOT UNDER NWS QUALITY CONTROL. THEY ALSO MAY NOT
  REPORT WEATHER SUCH AS PRECIPITATION OR FOG.

ILZ001-002-007-009-015-016-024-201300-
NORTHWEST ILLINOIS

CITY           SKY/WX    TMP DP  RH WIND       PRES   REMARKS
MOLINE         FOG       37  36  96 NE3       29.61S VSB 3/4
6HR MIN TEMP:  37; 6HR MAX TEMP:  38;

STERLING*      MIX PCPN  37  36  96 NE3       29.64R VSB 1
SAVANNA*       FOG       36  36  99 NE3       29.63F VSB 1
$$

ILZ003-004-008-010-011-017-018-201300-
NORTH CENTRAL ILLINOIS

CITY           SKY/WX    TMP DP  RH WIND       PRES   REMARKS
ROCKFORD       DRIZZLE   38  36  92 E6        29.64F FOG     WCI  33
6HR MIN TEMP:  38; 6HR MAX TEMP:  38; 6HR PCP: TRACE;

FREEPORT*      FOG       35  34  99 NE3       29.66R VSB 1/2
ROCHELLE*      CLOUDY    36  36 100 NE5       29.63S FOG     WCI  32
DE KALB*       DRIZZLE   37  37  98 E8        29.63R WCI  31
$$

ILZ005-006-012>014-019>023-201300-
NORTHEAST ILLINOIS

CITY           SKY/WX    TMP DP  RH WIND       PRES   REMARKS
CHICAGO-OHARE  LGT RAIN  38  37  97 NE9       29.62F FOG     WCI  31
6HR MIN TEMP:  38; 6HR MAX TEMP:  39; 6HR PCP:  0.16;

CHICAGO-MIDWAY LGT RAIN  37  37 100 NE10      29.62F FOG     WCI  30
6HR MIN TEMP:  37; 6HR MAX TEMP:  38; 6HR PCP:  0.18;

AURORA         CLOUDY    39  37  92 NE9       29.62S WCI  33
6HR MIN TEMP:  39; 6HR MAX TEMP:  40; 6HR PCP:  0.11;

LANSING*       LGT RAIN  37  37 100 NE5       29.62S WCI  33
JOLIET*        DRIZZLE   39  39  99 NE3       29.61F
WAUKEGAN       CLOUDY    37  37 100 NE8       29.64F FOG     WCI  31
6HR MIN TEMP:  37; 6HR MAX TEMP:  37; 6HR PCP:  0.30;

DUPAGE AIRPORT CLOUDY    38  36  92 E9        29.61F FOG     WCI  31
6HR MIN TEMP:  38; 6HR MAX TEMP:  39; 6HR PCP:  0.07;

WHEELING       CLOUDY    38  37  97 E7        29.64F WCI  33
6HR MIN TEMP:  37; 6HR MAX TEMP:  38; 6HR PCP:  0.16;

MORRIS*        LGT RAIN  37  36  97 CALM      29.61S
ROMEOVILLE*    DRIZZLE   37  37 100 E10       29.61F WCI  30
NORTHERLY ISL    N/A     36  35  96 N5          N/A  WCI  32
$$

LMZ740>746-201300-
SOUTHERN LAKE MICHIGAN

STATION/POSITION SKY/WX   TEMP    WIND        PRES    VSBY  WAVE
                          AIR SEA DIR/SP/G                  HT/PER
                          (F)     (DEG/KT/KT) (MB)    (MI)  (FT/S)
HARRISON CRIB              38      70/ 12/ 13   N/A
BURNHAM HARBOR             36     360/  4/  7   N/A
CALUMET HARBOR             36      10/  7/ 10 1002.6F
BURNS HARBOR               34      80/  6/  8 1003.7S
MICHIGAN CITY              34      40/  8/  9   N/A
$$

ILZ025>027-034>036-040-047-049-050-058-095>099-201300-
WEST-CENTRAL ILLINOIS

CITY           SKY/WX    TMP DP  RH WIND       PRES   REMARKS
QUINCY         FOG       41  41 100 NE5       29.58F VSB 1/4
GALESBURG*     FOG       36  36 100 NE3       29.60S VSB 1/2
MACOMB*        FOG       37  37 100 CALM      29.63R VSB 1/2
JACKSONVILLE*  FOG       42  41  99 CALM      29.60F VSB 3/4
PITTSFIELD*    FOG       43  43 100 CALM      29.61S VSB 1/4
$$

ILZ028>032-037-038-041>044-048-051>054-059>061-201300-
CENTRAL ILLINOIS

CITY           SKY/WX    TMP DP  RH WIND       PRES   REMARKS
PONTIAC        DRIZZLE   38  38 100 CALM      29.63R
BLOOMINGTON    LGT RAIN  40  39  97 CALM      29.61F VSB 3/4
DECATUR        HAZE      45  32  60 CALM      29.61R VSB 1/2
PEORIA         FOG       38  38 100 E5        29.61S VSB 1/2 WCI  34
6HR MIN TEMP:  38; 6HR MAX TEMP:  40; 6HR PCP: TRACE;

LACON*         DRZL/FOG  36  36 100 NE5       29.60F VSB 3/4 WCI  32
LINCOLN*       FOG       41  41 100 CALM      29.61S VSB 1/4
SPRINGFIELD    FOG       44  43  96 CALM      29.61R VSB 3/4
6HR MIN TEMP:  43; 6HR MAX TEMP:  44; 6HR PCP:  0.07;

TAYLORVILLE    FOG       44  44 100 SW3       29.61R VSB 1
6HR MIN TEMP:  42; 6HR MAX TEMP:  44; 6HR PCP:  0.25;

$$

ILZ033-039-045-046-055>057-062-063-201300-
EAST-CENTRAL ILLINOIS

CITY           SKY/WX    TMP DP  RH WIND       PRES   REMARKS
CHAMPAIGN      FOG       43  42  97 NW7       29.61S VSB 1/2
RANTOUL*       DRIZZLE   43  43  99 SW6       29.62R
MATTOON        CLOUDY    46  46 100 SW7       29.60S FOG
PARIS*         CLOUDY    45  45 100 W7        29.61F FOG
$$

ILZ079-100>102-201300-
SOUTHWEST ILLINOIS

CITY           SKY/WX    TMP DP  RH WIND       PRES   REMARKS
ALTON          FOG       45  45 100 SE3       29.63R VSB 1/2
BELLEVILLE     CLOUDY    47  47 100 CALM      29.63R
CAHOKIA*       CLOUDY    48  45  89 S5        29.63R
SPARTA*        CLOUDY    48  48  99 S12       29.66R
$$

ILZ064>066-069>071-074>076-080>082-084>086-088>090-092>094-201300-
SOUTH-CENTRAL ILLINOIS

CITY           SKY/WX    TMP DP  RH WIND       PRES   REMARKS
CARBONDALE     CLOUDY    51  50  96 S7        29.67R
6HR MIN TEMP:  49; 6HR MAX TEMP:  54; 6HR PCP: TRACE;

CAIRO*         CLOUDY    52  49  91 SW7       29.69S
EFFINGHAM*     FOG       47  47 100 CALM      29.64S VSB 1/2
MARION         CLOUDY    52  52 100 SW8       29.68R
MT. VERNON     CLOUDY    50  50 100 SW8       29.66R FOG
CENTRALIA*     FOG       49  49 100 SW5       29.64R VSB 1/4
SALEM*         FOG       48  47  95 SW5       29.63S VSB 1/4
$$

ILZ067-068-072-073-078-083-087-091-201300-
SOUTHEAST ILLINOIS

CITY           SKY/WX    TMP DP  RH WIND       PRES   REMARKS
LAWRENCEVILLE  CLOUDY    53  53 100 SW14      29.64S
FLORA*         CLOUDY    51  51  97 SW5       29.64R
FAIRFIELD*     CLOUDY    51  51 100 SW5       29.64S FOG
HARRISBURG*    CLOUDY    53  51  92 SW8       29.68R
ROBINSON*      CLOUDY    51  51 100 SW12      29.63S
CARMI*         CLOUDY    53  51  92 SW7       29.66R
$$

ABBREVIATIONS USED IN REMARKS
   TC - TEMPERATURE IN CELSIUS
  WCI - WIND CHILL INDEX
   HX - HEAT INDEX
  VSB - VISIBILITY
$$




USA.gov is the U.S. government's official web portal to all federal, state and local government web resources and services.